Tracking 18840 objects as of 20-November-2017
HD Live streaming from Space Station
objects crossing your sky now

FENGYUN 1C DEB

Track FENGYUN 1C DEB now!
10-day predictions


NORAD ID: 31092
Int'l Code: 1999-025BGN
Perigee: 858.1 km
Apogee: 1,369.5 km
Inclination: 99.6 °
Period: 107.4 minutes
Semi major axis: 7484 km
RCS: 0.0082 m2 (small)
Launch date: May 10, 1999
Source: People's Republic of China (PRC)
Launch site: Taiyaun Space Center, China (TSC)

Note: This is SATELLITE DEBRIS
aabbcc
Your satellite tracking list
Your tracking list is empty




NASA's NSSDC Master Catalog

Two Line Element Set (TLE):
1 31092U 99025BGN 17322.52146554 +.00000175 +00000-0 +27987-3 0  9996
2 31092 099.5575 177.2941 0341599 195.6792 163.3546 13.40702176523513
Source of the keplerian elements: AFSPC